This is the latest recevied weather packets stored in our database for station/object W2EH. If no packets are shown the sender has not sent any weather packets the latest 10 day(s).
| Time | Temp. | Humidity | Pressure | Rain* | Wind** | Luminosity | Snow |
|---|---|---|---|---|---|---|---|
| 1777943394 | 25° C | 63% | 1007.3 hPa | 0 mm | - | 1 W/m² | - |
| 1777943089 | 25° C | 63% | 1007.5 hPa | 0 mm | - | 2 W/m² | - |
| 1777942785 | 25.56° C | 62% | 1007.4 hPa | 0 mm | - | 3 W/m² | - |
| 1777942482 | 25.56° C | 61% | 1007.3 hPa | 0 mm | - | 4 W/m² | - |
| 1777942180 | 25.56° C | 61% | 1007.3 hPa | 0 mm | - | 6 W/m² | - |
| 1777941876 | 25.56° C | 61% | 1007.4 hPa | 0 mm | - | 8 W/m² | - |
| 1777941573 | 25.56° C | 60% | 1007.1 hPa | 0 mm | - | 10 W/m² | - |
| 1777941271 | 26.11° C | 60% | 1007.3 hPa | 0 mm | - | 14 W/m² | - |
| 1777940967 | 26.11° C | 60% | 1007.3 hPa | 0 mm | - | 21 W/m² | - |
| 1777940663 | 26.11° C | 61% | 1007.1 hPa | 0 mm | - | 26 W/m² | - |
| 1777940362 | 26.11° C | 61% | 1007.2 hPa | 0 mm | - | 23 W/m² | - |
| 1777940059 | 26.11° C | 61% | 1007.2 hPa | 0 mm | - | 18 W/m² | - |
| 1777939756 | 26.11° C | 60% | 1007 hPa | 0 mm | - | 13 W/m² | - |
| 1777939454 | 26.11° C | 60% | 1007.2 hPa | 0 mm | - | 17 W/m² | - |
| 1777939150 | 26.11° C | 60% | 1007 hPa | 0 mm | - | 19 W/m² | - |
| 1777938848 | 26.67° C | 59% | 1007.3 hPa | 0 mm | - | 22 W/m² | - |
| 1777938543 | 26.67° C | 61% | 1007.2 hPa | 0 mm | - | 24 W/m² | - |
| 1777938241 | 26.67° C | 60% | 1007.1 hPa | 0 mm | - | 33 W/m² | - |
| 1777937937 | 26.67° C | 60% | 1007.4 hPa | 0 mm | - | 35 W/m² | - |
| 1777937633 | 26.67° C | 59% | 1007.5 hPa | 0 mm | - | 52 W/m² | - |
| 1777937330 | 26.67° C | 59% | 1007.4 hPa | 0 mm | - | 63 W/m² | - |
| 1777937027 | 26.67° C | 58% | 1007.7 hPa | 0 mm | - | 37 W/m² | - |
| 1777936724 | 27.22° C | 58% | 1007.6 hPa | 0 mm | - | 36 W/m² | - |
| 1777936421 | 27.22° C | 58% | 1007.3 hPa | 0 mm | - | 55 W/m² | - |
| 1777936117 | 27.22° C | 58% | 1007.6 hPa | 0 mm | - | 55 W/m² | - |
* Rain latest hour (hover to see other rain measurements)
** Current wind speed in m/s (hover to see current wind gust speed)